This is the latest recevied weather packets stored in our database for station/object K3XY-2. If no packets are shown the sender has not sent any weather packets the latest 10 day(s).
| Time | Temp. | Humidity | Pressure | Rain* | Wind** | Luminosity | Snow |
|---|---|---|---|---|---|---|---|
| 1777694942 | 10.56° C | 78% | 1011.6 hPa | 0 mm | - | - | - |
| 1777694343 | 10.56° C | 78% | 1011.5 hPa | 0 mm | - | - | - |
| 1777693743 | 10.56° C | 78% | 1011.4 hPa | 0 mm | - | - | - |
| 1777693142 | 10.56° C | 78% | 1011.3 hPa | 0 mm | - | - | - |
| 1777692542 | 10.56° C | 77% | 1011.1 hPa | 0 mm | - | - | - |
| 1777691943 | 10.56° C | 76% | 1011.1 hPa | 0 mm | - | - | - |
| 1777691343 | 10.56° C | 75% | 1011.2 hPa | 0 mm | - | - | - |
| 1777690742 | 11.11° C | 74% | 1011.2 hPa | 0 mm | - | - | - |
| 1777690142 | 11.11° C | 72% | 1011.3 hPa | 0 mm | - | - | - |
| 1777689542 | 11.11° C | 72% | 1011.1 hPa | 0 mm | - | - | - |
| 1777688943 | 11.11° C | 72% | 1011.5 hPa | 0 mm | - | - | - |
| 1777688342 | 11.11° C | 72% | 1011.6 hPa | 0 mm | - | - | - |
| 1777687742 | 11.11° C | 71% | 1011.7 hPa | 0 mm | - | - | - |
| 1777687143 | 10.56° C | 70% | 1011.6 hPa | 0 mm | - | - | - |
| 1777686543 | 10.56° C | 69% | 1011.6 hPa | 0 mm | - | - | - |
| 1777685942 | 10.56° C | 67% | 1011.4 hPa | 0 mm | - | - | - |
| 1777685342 | 10.56° C | 65% | 1011.1 hPa | 0 mm | - | - | - |
| 1777684742 | 11.11° C | 63% | 1011.2 hPa | 0 mm | - | - | - |
| 1777684142 | 11.67° C | 61% | 1011 hPa | 0 mm | - | - | - |
| 1777683542 | 12.22° C | 63% | 1010.9 hPa | 0 mm | - | - | - |
| 1777682942 | 12.22° C | 61% | 1010.8 hPa | 0 mm | - | - | - |
| 1777682342 | 12.78° C | 59% | 1010.7 hPa | 0 mm | - | - | - |
| 1777681743 | 13.33° C | 60% | 1010.4 hPa | 0 mm | - | - | - |
| 1777681142 | 13.33° C | 57% | 1010.5 hPa | 0 mm | - | - | - |
| 1777680542 | 13.89° C | 55% | 1010.4 hPa | 0 mm | - | - | - |
* Rain latest hour (hover to see other rain measurements)
** Current wind speed in m/s (hover to see current wind gust speed)